Estación municipal de Figaró Montmany (Vallès Oriental, P.N. del Montseny)

Consulta los datos en tiempo real de la estación municipal de Figaró Montmany





Hora UTC 21:55
Temperatura 23.7 ºC
Humedad 56.8 %
Presión 1023.1 hPa
Pluja 0.0 mm
Velocidad viento 15.0 km/h
Dirección viento

Datos diarios 2026-09-05



Hora UTC (invierno +1h; verano +2h)
Temperatura (ºC) Humedad (%) Presión (hPa) Velocidad viento (km/h) Precipitación (mm)
Hora UTC Aire Humedad Presión Vel. Dir. Vel. Max Dir. Intent. máx 5 min.
00:05 22.7 70.7 1022.0 11.7 27.4 0.0
00:10 22.6 70.9 1022.1 10.3 27.4 0.0
00:15 22.7 71.0 1022.1 11.8 27.4 0.0
00:20 22.6 70.7 1022.1 11.8 27.4 0.0
00:25 22.5 71.4 1022.1 11.3 27.4 0.0
00:30 22.4 71.2 1022.0 11.0 27.4 0.0
00:35 22.4 70.1 1022.0 7.5 27.4 0.0
00:40 22.3 70.4 1022.0 9.7 27.4 0.0
00:45 22.4 71.3 1022.0 8.6 27.4 0.0
00:50 22.3 70.0 1021.9 12.0 27.4 0.0
00:55 22.3 70.0 1021.9 12.0 27.4 0.0
01:00 22.4 68.0 1022.0 10.6 12.9 0.0
01:05 22.4 70.0 1021.9 10.3 12.9 0.0
01:10 22.4 71.4 1021.9 10.1 12.9 0.0
01:15 22.6 70.9 1021.9 12.4 12.9 0.0
01:20 22.6 70.9 1021.9 11.3 12.9 0.0
01:25 22.5 70.6 1022.0 11.3 12.9 0.0
01:30 22.4 69.8 1022.0 8.9 12.9 0.0
01:35 22.3 69.0 1022.0 10.6 12.9 0.0
01:40 22.4 70.5 1021.9 10.1 14.5 0.0
01:45 22.4 69.1 1021.8 10.8 14.5 0.0
01:50 22.4 70.8 1021.9 11.4 14.5 0.0
01:55 22.3 71.1 1021.9 10.9 14.5 0.0
02:00 22.2 70.9 1021.9 8.6 14.5 0.0
02:05 22.2 70.5 1022.0 10.3 14.5 0.0
02:10 22.2 68.6 1021.9 10.3 14.5 0.0
02:15 22.3 68.5 1022.0 10.2 14.5 0.0
02:20 22.3 69.4 1021.8 10.1 14.5 0.0
02:25 22.4 68.9 1021.9 9.0 14.5 0.0
02:30 22.4 67.4 1021.9 11.0 14.5 0.0
02:35 22.6 69.7 1021.9 9.5 14.5 0.0
02:40 22.6 69.6 1021.9 8.6 14.5 0.0
02:45 22.6 70.8 1022.0 7.8 14.5 0.0
02:50 22.6 71.3 1022.1 8.3 14.5 0.0
02:55 22.4 70.3 1022.0 6.8 14.5 0.0
03:00 22.2 69.7 1022.0 8.1 14.5 0.0
03:05 22.2 68.7 1021.9 6.4 14.5 0.0
03:10 22.2 69.9 1022.1 8.7 14.5 0.0
03:15 22.1 69.6 1022.1 8.3 14.5 0.0
03:20 22.2 70.1 1022.1 7.9 14.5 0.0
03:25 22.1 70.6 1022.1 9.8 14.5 0.0
03:30 21.9 71.8 1022.1 11.3 14.5 0.0
03:35 21.8 72.0 1022.2 11.2 14.5 0.0
03:40 21.8 73.2 1022.2 11.9 14.5 0.0
03:45 21.8 72.3 1022.2 14.1 14.5 0.0
03:50 21.7 73.0 1022.2 12.9 14.5 0.0
03:55 21.7 72.7 1022.2 13.1 14.5 0.0
04:00 21.6 73.4 1022.2 12.4 14.5 0.0
04:05 21.6 72.1 1022.1 13.8 14.5 0.0
04:10 21.4 72.9 1022.1 13.5 14.5 0.0
04:15 21.6 74.0 1022.1 12.9 14.5 0.0
04:20 21.6 73.3 1022.2 14.0 14.5 0.0
04:25 21.6 73.2 1022.1 13.5 14.5 0.0
04:30 21.6 73.4 1022.2 13.8 14.5 0.0
04:35 21.5 73.0 1022.2 15.1 14.5 0.0
04:40 21.4 73.0 1022.3 14.5 14.5 0.0
04:45 21.3 73.2 1022.2 13.5 17.7 0.0
04:50 21.2 73.7 1022.3 14.4 17.7 0.0
04:55 21.4 72.9 1022.3 14.0 17.7 0.0
05:00 21.8 71.7 1022.2 16.2 17.7 0.0
05:05 21.8 71.0 1022.4 16.4 19.3 0.0
05:10 21.7 71.5 1022.3 15.4 19.3 0.0
05:15 21.7 71.4 1022.4 17.4 19.3 0.0
05:20 21.6 70.6 1022.4 15.4 19.3 0.0
05:25 21.6 72.1 1022.5 13.9 19.3 0.0
05:30 21.6 72.3 1022.5 14.3 19.3 0.0
05:35 21.4 72.3 1022.5 15.9 19.3 0.0
05:40 21.3 73.0 1022.5 16.2 20.9 0.0
05:45 21.3 72.8 1022.6 16.3 20.9 0.0
05:50 21.3 72.3 1022.5 13.9 20.9 0.0
05:55 21.1 73.6 1022.6 16.0 20.9 0.0
06:00 21.1 73.7 1022.6 15.5 20.9 0.0
06:05 21.2 72.8 1022.6 16.3 20.9 0.0
06:10 21.3 71.3 1022.6 14.0 20.9 0.0
06:15 21.4 72.1 1022.7 14.5 20.9 0.0
06:20 21.4 72.7 1022.7 13.3 20.9 0.0
06:25 21.4 72.7 1022.7 13.8 20.9 0.0
06:30 21.4 72.5 1022.7 15.8 20.9 0.0
06:35 21.6 71.5 1022.9 14.6 20.9 0.0
06:40 21.8 70.8 1022.9 15.4 20.9 0.0
06:45 21.8 70.6 1022.9 14.4 20.9 0.0
06:50 22.1 69.6 1023.0 15.7 20.9 0.0
06:55 22.4 68.9 1022.9 14.5 20.9 0.0
07:00 22.6 68.2 1023.0 18.1 20.9 0.0
07:05 22.9 67.0 1023.0 18.2 20.9 0.0
07:10 23.2 65.9 1022.9 16.4 20.9 0.0
07:15 23.3 65.5 1023.0 13.6 20.9 0.0
07:20 23.6 64.5 1023.0 15.3 20.9 0.0
07:25 23.9 63.6 1023.0 15.3 20.9 0.0
07:30 24.1 63.2 1023.0 13.6 20.9 0.0
07:35 24.4 62.1 1023.0 16.4 20.9 0.0
07:40 24.7 61.4 1023.0 13.9 20.9 0.0
07:45 24.9 60.7 1023.0 11.8 20.9 0.0
07:50 25.1 59.9 1023.0 14.4 20.9 0.0
07:55 25.4 59.1 1022.9 14.3 20.9 0.0
08:00 25.8 57.7 1023.1 13.5 20.9 0.0
08:05 26.2 56.5 1023.1 12.2 20.9 0.0
08:10 26.6 55.7 1023.0 9.8 20.9 0.0
08:15 26.9 55.0 1023.0 11.3 20.9 0.0
08:20 27.2 54.0 1023.0 9.9 20.9 0.0
08:25 27.4 53.5 1023.0 12.0 20.9 0.0
08:30 27.7 53.0 1023.0 8.3 20.9 0.0
08:35 28.0 51.5 1023.0 10.1 20.9 0.0
08:40 28.3 51.2 1023.1 11.5 20.9 0.0
08:45 28.6 50.1 1023.1 10.3 20.9 0.0
08:50 29.1 49.5 1023.1 6.5 20.9 0.0
08:55 29.6 47.3 1023.1 5.4 20.9 0.0
09:00 29.9 46.4 1023.1 0.5 20.9 0.0
09:05 30.3 45.6 1023.1 0.0 20.9 0.0
09:10 30.8 41.5 1023.1 0.0 20.9 0.0
09:15 31.6 36.4 1023.1 5.7 20.9 0.0
09:20 32.2 33.6 1023.2 12.0 20.9 0.0
09:25 32.4 31.9 1023.2 13.2 20.9 0.0
09:30 32.6 31.7 1023.2 13.5 20.9 0.0
09:35 32.6 32.1 1023.3 12.9 20.9 0.0
09:40 32.7 32.6 1023.2 11.7 20.9 0.0
09:45 32.8 32.5 1023.2 10.9 20.9 0.0
09:50 32.8 32.9 1023.3 12.4 20.9 0.0
09:55 32.8 32.9 1023.3 14.6 20.9 0.0
10:00 32.9 33.2 1023.3 14.1 20.9 0.0
10:05 33.0 33.0 1023.4 12.2 20.9 0.0
10:10 33.1 33.1 1023.4 12.2 20.9 0.0
10:15 33.2 32.6 1023.2 11.0 20.9 0.0
10:20 33.2 32.4 1023.4 13.1 20.9 0.0
10:25 33.2 32.0 1023.2 15.0 20.9 0.0
10:30 33.2 31.9 1023.3 13.4 20.9 0.0
10:35 33.3 32.1 1023.2 12.9 20.9 0.0
10:40 33.3 32.2 1023.3 12.6 20.9 0.0
10:45 33.3 31.7 1023.1 12.9 20.9 0.0
10:50 33.3 31.8 1023.1 12.1 20.9 0.0
10:55 33.3 32.2 1023.1 12.6 20.9 0.0
11:00 33.3 32.2 1023.1 14.9 20.9 0.0
11:05 33.4 31.8 1023.1 8.4 20.9 0.0
11:10 33.4 32.2 1023.1 13.2 20.9 0.0
11:15 33.4 32.5 1023.2 12.6 20.9 0.0
11:20 33.4 31.8 1023.2 12.1 20.9 0.0
11:25 33.5 32.0 1023.2 12.7 20.9 0.0
11:30 33.7 31.3 1023.3 13.7 20.9 0.0
11:35 33.6 31.6 1023.3 15.3 20.9 0.0
11:40 33.5 31.4 1023.4 13.0 25.7 0.0
11:45 33.3 31.8 1023.4 15.7 25.7 0.0
11:50 33.2 31.8 1023.4 15.1 25.7 0.0
11:55 33.2 32.0 1023.4 14.0 25.7 0.0
12:00 33.2 32.1 1023.3 14.2 25.7 0.0
12:05 33.2 31.7 1023.3 13.8 25.7 0.0
12:10 33.4 31.7 1023.2 9.5 25.7 0.0
12:15 33.4 31.3 1023.2 15.8 25.7 0.0
12:20 33.5 31.2 1023.3 12.1 25.7 0.0
12:25 33.4 31.3 1023.2 15.0 25.7 0.0
12:30 33.3 31.4 1023.2 16.6 25.7 0.0
12:35 33.2 31.8 1023.2 14.1 25.7 0.0
12:40 33.3 31.9 1023.1 12.0 25.7 0.0
12:45 33.4 31.9 1023.1 13.5 25.7 0.0
12:50 33.3 32.1 1023.1 10.5 25.7 0.0
12:55 33.1 32.1 1023.0 16.2 25.7 0.0
13:00 33.2 32.3 1023.0 14.8 25.7 0.0
13:05 33.2 32.1 1023.0 13.2 25.7 0.0
13:10 33.1 32.4 1023.0 16.0 25.7 0.0
13:15 33.2 32.7 1023.0 16.1 25.7 0.0
13:20 33.1 32.6 1023.0 16.2 25.7 0.0
13:25 33.1 32.5 1022.9 16.5 25.7 0.0
13:30 33.0 32.7 1022.9 20.0 25.7 0.0
13:35 33.1 32.9 1022.9 13.1 25.7 0.0
13:40 33.0 33.2 1023.0 15.5 30.6 0.0
13:45 32.8 33.2 1022.8 15.3 30.6 0.0
13:50 32.9 33.3 1022.9 15.2 30.6 0.0
13:55 32.8 33.5 1022.8 16.6 30.6 0.0
14:00 32.8 33.3 1022.7 15.5 30.6 0.0
14:05 32.8 34.0 1022.7 17.2 30.6 0.0
14:10 32.9 33.6 1022.8 16.4 30.6 0.0
14:15 32.8 33.8 1022.8 15.9 30.6 0.0
14:20 32.7 34.1 1022.8 15.3 30.6 0.0
14:25 32.7 34.2 1022.8 16.3 30.6 0.0
14:30 32.6 34.2 1022.7 15.4 30.6 0.0
14:35 32.6 34.3 1022.8 12.7 30.6 0.0
14:40 32.6 34.8 1022.7 14.1 30.6 0.0
14:45 32.7 34.6 1022.5 11.3 30.6 0.0
14:50 32.6 34.7 1022.5 14.1 30.6 0.0
14:55 32.7 34.8 1022.4 11.7 30.6 0.0
15:00 32.7 35.1 1022.5 10.3 30.6 0.0
15:05 32.7 35.5 1022.5 12.4 30.6 0.0
15:10 32.6 35.6 1022.4 11.2 30.6 0.0
15:15 32.3 36.5 1022.5 16.0 30.6 0.0
15:20 32.3 36.5 1022.4 10.3 30.6 0.0
15:25 32.1 36.4 1022.4 17.5 30.6 0.0
15:30 31.9 36.6 1022.4 14.1 30.6 0.0
15:35 32.1 36.8 1022.4 13.2 30.6 0.0
15:40 32.0 37.1 1022.3 15.3 30.6 0.0
15:45 32.0 37.1 1022.3 13.9 30.6 0.0
15:50 32.0 36.9 1022.1 9.8 30.6 0.0
15:55 31.9 36.9 1022.2 13.2 30.6 0.0
16:00 31.9 37.3 1022.3 11.8 30.6 0.0
16:05 31.8 37.5 1022.2 11.9 30.6 0.0
16:10 31.7 37.3 1022.3 13.7 30.6 0.0
16:15 31.7 37.2 1022.3 11.4 30.6 0.0
16:20 31.7 37.7 1022.3 10.5 30.6 0.0
16:25 31.6 38.0 1022.2 13.0 30.6 0.0
16:30 31.6 38.0 1022.3 10.7 30.6 0.0
16:35 31.6 37.9 1022.3 11.1 30.6 0.0
16:40 31.5 38.0 1022.3 11.7 30.6 0.0
16:45 31.3 38.5 1022.3 9.9 30.6 0.0
16:50 31.1 39.7 1022.4 12.0 30.6 0.0
16:55 30.9 40.1 1022.3 12.5 30.6 0.0
17:00 30.8 39.6 1022.5 9.8 30.6 0.0
17:05 30.7 39.7 1022.4 11.3 30.6 0.0
17:10 30.7 40.4 1022.6 12.4 30.6 0.0
17:15 30.6 40.2 1022.6 10.2 30.6 0.0
17:20 30.4 39.8 1022.6 9.0 30.6 0.0
17:25 30.3 40.8 1022.6 10.2 30.6 0.0
17:30 30.2 40.7 1022.6 8.0 30.6 0.0
17:35 30.1 41.5 1022.6 10.8 30.6 0.0
17:40 30.0 41.6 1022.6 8.4 30.6 0.0
17:45 29.9 41.6 1022.6 8.7 30.6 0.0
17:50 29.8 41.9 1022.7 6.0 30.6 0.0
17:55 29.7 42.4 1022.7 5.7 30.6 0.0
18:00 29.5 42.9 1022.7 4.2 30.6 0.0
18:05 29.4 43.2 1022.7 3.1 30.6 0.0
18:10 29.2 43.8 1022.8 2.8 30.6 0.0
18:15 29.1 44.1 1022.9 1.8 30.6 0.0
18:20 28.9 44.8 1022.9 0.0 30.6 0.0
18:25 28.8 45.5 1023.0 1.4 30.6 0.0
18:30 28.3 46.6 1022.9 1.4 30.6 0.0
18:35 27.7 48.0 1023.0 5.7 30.6 0.0
18:40 27.3 49.2 1023.0 6.2 30.6 0.0
18:45 27.0 49.9 1023.2 8.1 30.6 0.0
18:50 26.9 49.8 1023.2 8.0 30.6 0.0
18:55 26.6 50.5 1023.2 9.4 30.6 0.0
19:00 26.3 51.8 1023.2 10.1 30.6 0.0
19:05 26.1 51.9 1023.2 12.3 30.6 0.0
19:10 25.9 52.4 1023.4 10.5 30.6 0.0
19:15 25.7 53.0 1023.3 10.2 30.6 0.0
19:20 25.7 53.0 1023.2 11.2 30.6 0.0
19:25 25.7 53.2 1023.2 8.5 30.6 0.0
19:30 25.7 53.3 1023.2 9.3 30.6 0.0
19:35 25.5 54.0 1023.3 10.5 30.6 0.0
19:40 25.2 54.3 1023.4 11.8 30.6 0.0
19:45 25.3 54.3 1023.3 12.5 30.6 0.0
19:50 25.2 54.4 1023.3 12.6 30.6 0.0
19:55 25.2 54.4 1023.3 13.9 30.6 0.0
20:00 25.2 54.6 1023.1 14.4 30.6 0.0
20:05 25.1 54.8 1023.1 12.7 30.6 0.0
20:10 24.9 55.1 1023.2 15.1 30.6 0.0
20:15 24.8 55.4 1023.4 11.9 30.6 0.0
20:20 24.8 55.5 1023.3 14.9 30.6 0.0
20:25 24.7 55.6 1023.4 9.8 30.6 0.0
20:30 24.7 55.7 1023.3 12.1 30.6 0.0
20:35 24.6 55.0 1023.3 12.8 30.6 0.0
20:40 24.4 56.4 1023.3 11.5 30.6 0.0
20:45 24.4 56.5 1023.3 10.6 30.6 0.0
20:50 24.4 56.5 1023.3 14.5 30.6 0.0
20:55 24.3 55.5 1023.3 11.7 30.6 0.0
21:00 24.2 56.6 1023.3 11.5 30.6 0.0
21:05 24.2 56.3 1023.4 10.9 30.6 0.0
21:10 24.2 56.4 1023.4 12.3 30.6 0.0
21:15 24.1 56.5 1023.4 10.2 30.6 0.0
21:20 24.2 56.2 1023.3 13.6 30.6 0.0
21:25 24.0 56.4 1023.2 13.0 30.6 0.0
21:30 23.9 56.8 1023.3 14.5 30.6 0.0
21:35 23.9 56.9 1023.2 15.9 30.6 0.0
21:40 23.8 57.3 1023.3 14.6 30.6 0.0
21:45 23.7 57.7 1023.2 14.0 30.6 0.0
21:50 23.7 57.3 1023.2 11.6 30.6 0.0
21:55 23.7 56.8 1023.1 15.0 30.6 0.0
Máxima 33.7 74.0 1023.4 20.0 30.6 0.0
Mínima 20 31.2 1021.8
Total 0.0